[[{"header":{"parameterUnit":"m.s-1","parameterCategory":1,"la1":30.2991,"la2":30.254,"lo1":-89.0895,"lo2":-89.0444,"dy":0.0017,"dx":0.0017,"nx":28,"ny":28,"refTime":"2025-08-20T21:00:00:Z","depth":0,"parameterNumber":2,"parameterNumberName":"U-component_of_WINDS"},"data":[0,0,0,0,0,0,0,0,0,0,0,0,0,0,0,0,0,0,0,0,0,0,0,0,0,0,0,0,0,0,0,0,0,0,0,0,0,0,0,0,0,0,0,0,0,0,0,0,0,0,0,0,0,0,0,0,0,0,0.3142,0.3143,0,0.319,0.319,0.3191,0.3193,0.3192,0.3192,0.3191,0.3242,0.3244,0.3246,0,0,0,0,0,0,0,0,0,0,0,0,0,0.3056,0.3058,0.3142,0.3143,0.3144,0.319,0.319,0.3191,0.3193,0.3192,0.3192,0.3191,0.3242,0.3244,0.3246,0,0,0,0,0,0,0,0,0,0,0,0,0,0.3098,0.3058,0.3142,0.315,0.3151,0.3189,0.319,0.3191,0.3193,0.3192,0.3191,0.3191,0.3241,0.3244,0.3246,0.3281,0,0,0.3255,0.3256,0,0,0,0,0,0,0,0,0.3095,0.3101,0.3148,0.315,0.3151,0.3184,0.3178,0.3221,0.3193,0.3177,0.3191,0.319,0.3224,0.3228,0.3239,0.3283,0.3285,0.3255,0.3257,0.3258,0.3259,0,0,0,0,0,0,0,0.3092,0.3099,0.3161,0.3149,0.3151,0.3152,0.3157,0.3187,0.3205,0.3179,0.3179,0.3184,0.3224,0.3236,0.324,0.3286,0.3255,0.3258,0.3259,0.326,0.3361,0.3362,0,0,0,0,0,0,0.3088,0.3096,0.316,0.3163,0.312,0.3154,0.316,0.3175,0.3204,0.3208,0.3185,0.3184,0.3232,0.3237,0.3242,0.3284,0.3258,0.3261,0.3262,0.336,0.3361,0.3362,0,0,0,0,0,0,0.3086,0.3093,0.3158,0.313,0.3138,0.3157,0.3173,0.3176,0.3188,0.3209,0.3213,0.3193,0.3231,0.3238,0.3271,0.3286,0.3262,0.3265,0.3359,0.336,0.3362,0.3369,0,0,0,0,0,0,0.3083,0.3093,0.3105,0.313,0.3139,0.3185,0.3174,0.3178,0.3192,0.3192,0.3218,0.3222,0.3231,0.3267,0.3274,0.329,0.3267,0.3358,0.336,0.3361,0.3368,0.3371,0.3373,0,0,0,0,0,0.308,0.3106,0.3106,0.3114,0.3156,0.3186,0.3192,0.3201,0.3193,0.3207,0.3221,0.3221,0.3283,0.327,0.3278,0.3295,0.3357,0.3359,0.3361,0.3367,0.337,0.3373,0,0,0,0,0,0,0.3084,0.311,0.311,0.3144,0.3163,0.3187,0.3204,0.3205,0.3227,0.3226,0.3237,0.3243,0.3276,0.3289,0.3274,0.333,0.3319,0.3323,0.332,0.3324,0.3327,0.3324,0.3269,0,0,0,0,0,0.3089,0.3111,0.3132,0.3161,0.317,0.3185,0.3199,0.3204,0.3225,0.3233,0.3249,0.327,0.3294,0.3309,0.3333,0.3369,0.3375,0.3385,0.3388,0.339,0.3393,0.3414,0.3419,0.337,0.337,0.3369,0,0,0.3099,0.3116,0.3129,0.3162,0.3177,0.32,0.3192,0.3217,0.3235,0.3237,0.3269,0.3282,0.3305,0.334,0.3356,0.3352,0.3408,0.3393,0.3394,0.3397,0.3417,0.3421,0.3426,0.3371,0.3371,0.3371,0,0,0.313,0.3145,0.317,0.3185,0.3208,0.3217,0.3223,0.3247,0.3255,0.3287,0.3289,0.3311,0.3352,0.3369,0.3383,0.3419,0.342,0.3426,0.3441,0.3461,0.3465,0.3469,0.3482,0.3487,0.343,0.343,0.343,0,0.3141,0.3175,0.3183,0.3208,0.3222,0.3224,0.325,0.3265,0.3295,0.3305,0.3299,0.335,0.3366,0.3405,0.3414,0.3425,0.3433,0.3424,0.3464,0.3468,0.3471,0.3484,0.3489,0.343,0.343,0.343,0.343,0,0.3187,0.3211,0.3228,0.3256,0.3272,0.3298,0.331,0.3326,0.333,0.334,0.3373,0.3392,0.3419,0.3429,0.3433,0.3469,0.3465,0.3461,0.3451,0.3476,0.3489,0.3494,0.3431,0.3431,0.3431,0.343,0,0,0.3223,0.3253,0.326,0.3272,0.3297,0.3316,0.3342,0.3367,0.3381,0.3401,0.3423,0.3458,0.3454,0.347,0.3476,0.3494,0.3522,0.3488,0.3489,0.3494,0.3563,0.3566,0.3572,0.3522,0.3523,0.3524,0.3561,0,0.3257,0.3302,0.3309,0.3349,0.3371,0.3373,0.3395,0.3413,0.3424,0.3445,0.3457,0.3481,0.3474,0.3484,0.3501,0.3515,0.3536,0.3512,0.3544,0.3545,0.3539,0.3578,0.3582,0.3616,0.3566,0.3567,0.3567,0,0.3303,0.3324,0.3365,0.3386,0.3396,0.3416,0.344,0.346,0.348,0.3487,0.3504,0.3508,0.3535,0.3523,0.3561,0.3545,0.3558,0.3567,0.3568,0.3573,0.3559,0.3584,0.3627,0.3632,0.3575,0.3574,0.3574,0,0.3326,0.3364,0.3394,0.3404,0.343,0.3444,0.3455,0.3475,0.349,0.3511,0.3521,0.3545,0.3559,0.3578,0.3589,0.3579,0.3627,0.3615,0.3634,0.3633,0.3645,0.3644,0.3691,0.3652,0.3652,0.3651,0.3651,0,0.3364,0.339,0.3404,0.3423,0.3451,0.346,0.3488,0.3499,0.3517,0.3538,0.3541,0.3561,0.3573,0.3595,0.3604,0.3635,0.3641,0.3647,0.365,0.3648,0.3647,0.3658,0.3656,0.3653,0.3652,0.3652,0.3652,0,0.3396,0.3406,0.3439,0.346,0.3465,0.3486,0.3504,0.3523,0.3532,0.3559,0.3566,0.3582,0.3608,0.362,0.3653,0.3658,0.3693,0.3694,0.3686,0.3687,0.3706,0.3704,0.3762,0.377,0.3725,0.3725,0.3725,0,0.342,0.3439,0.3462,0.3476,0.3487,0.351,0.3525,0.3534,0.3549,0.3574,0.3589,0.3615,0.3636,0.3678,0.3693,0.3718,0.3719,0.3737,0.3723,0.372,0.372,0.372,0.3722,0.3741,0.3741,0.3741,0.3742,0,0.3462,0.3466,0.3487,0.3509,0.3527,0.3545,0.3563,0.3575,0.3587,0.3604,0.363,0.3646,0.3679,0.3705,0.373,0.3743,0.3745,0.3746,0.3752,0.3751,0.3746,0.3749,0.3695,0.3745,0.3744,0.3744,0.3744,0.3744,0.3491,0.3508,0.3527,0.355,0.3564,0.3581,0.3599,0.3611,0.3632,0.3659,0.3663,0.3691,0.3711,0.3745,0.3759,0.3781,0.3777,0.3785,0.3788,0.379,0.3791,0.3741,0.3786,0.3786,0.3786,0.3786,0.3786,0,0.3534,0.3545,0.3566,0.3591,0.361,0.3608,0.3628,0.3643,0.3668,0.3686,0.3706,0.3736,0.3761,0.3777,0.3803,0.3818,0.3819,0.3824,0.3824,0.3827,0.3793,0.3786,0.3823,0.3823,0.3823,0.3823,0.3823,0.3823,0.3558,0.3588,0.3594,0.363,0.3642,0.3669,0.368,0.3696,0.371,0.3743,0.3764,0.3774,0.3791,0.3818,0.3841,0.3845,0.3855,0.386,0.3865,0.3833,0.3829,0.3826,0.3819,0.3862,0.3862,0.3897,0.3897,0.3897]},{"header":{"parameterUnit":"m.s-1","parameterCategory":1,"la1":30.2991,"la2":30.254,"lo1":-89.0895,"lo2":-89.0444,"dy":0.0017,"dx":0.0017,"nx":28,"ny":28,"refTime":"2025-08-20T21:00:00:Z","depth":0,"parameterNumber":3,"parameterNumberName":"V-component_of_WINDS"},"data":[0,0,0,0,0,0,0,0,0,0,0,0,0,0,0,0,0,0,0,0,0,0,0,0,0,0,0,0,0,0,0,0,0,0,0,0,0,0,0,0,0,0,0,0,0,0,0,0,0,0,0,0,0,0,0,0,0,0,0.4299,0.43,0,0.4381,0.4382,0.4383,0.4358,0.4356,0.4355,0.4353,0.4438,0.4442,0.4446,0,0,0,0,0,0,0,0,0,0,0,0,0,0.4122,0.4125,0.4299,0.43,0.4301,0.4381,0.4382,0.4383,0.4358,0.4356,0.4354,0.4352,0.4437,0.4442,0.4446,0,0,0,0,0,0,0,0,0,0,0,0,0,0.4201,0.4126,0.4299,0.4298,0.4299,0.4381,0.4382,0.4383,0.4359,0.4356,0.4354,0.4351,0.4436,0.4441,0.4447,0.4534,0,0,0.4465,0.4467,0,0,0,0,0,0,0,0,0.4196,0.4207,0.4297,0.4298,0.4299,0.4357,0.4351,0.4434,0.4359,0.4336,0.4353,0.435,0.4413,0.4421,0.4442,0.4538,0.4542,0.4465,0.4469,0.4471,0.4473,0,0,0,0,0,0,0,0.4191,0.4204,0.4331,0.4299,0.43,0.4294,0.4303,0.4366,0.4388,0.4338,0.4336,0.4346,0.4413,0.4436,0.4444,0.4543,0.4465,0.447,0.4474,0.4476,0.4716,0.4719,0,0,0,0,0,0,0.4185,0.4199,0.4329,0.4334,0.424,0.4299,0.4309,0.4341,0.4387,0.4392,0.4348,0.4345,0.4428,0.4437,0.4447,0.4553,0.4471,0.4477,0.448,0.4713,0.4717,0.472,0,0,0,0,0,0,0.4181,0.4196,0.4325,0.4266,0.4282,0.4305,0.4341,0.4344,0.4367,0.4395,0.4399,0.4368,0.4426,0.4438,0.4513,0.4555,0.4479,0.4484,0.471,0.4714,0.4718,0.4765,0,0,0,0,0,0,0.4176,0.4195,0.4228,0.4267,0.4285,0.439,0.4344,0.4347,0.4377,0.4373,0.4415,0.4419,0.4425,0.4504,0.4518,0.4562,0.4489,0.4706,0.4712,0.4717,0.476,0.4771,0.478,0,0,0,0,0,0.417,0.4239,0.423,0.4246,0.4327,0.4393,0.4403,0.4408,0.438,0.4414,0.4432,0.4418,0.4548,0.4512,0.4528,0.4574,0.4703,0.471,0.4716,0.4756,0.4769,0.478,0,0,0,0,0,0,0.4205,0.4244,0.4235,0.4318,0.4352,0.4388,0.4431,0.4422,0.4465,0.4459,0.4464,0.4474,0.455,0.4569,0.4528,0.4661,0.4622,0.4632,0.4646,0.4659,0.4668,0.4663,0.4494,0,0,0,0,0,0.4223,0.4272,0.4303,0.4374,0.4391,0.4408,0.4437,0.4438,0.4473,0.4488,0.4511,0.4547,0.4596,0.4628,0.4674,0.4762,0.4771,0.4801,0.4811,0.4819,0.4828,0.4877,0.4891,0.4741,0.4741,0.4741,0,0,0.426,0.4287,0.4318,0.4382,0.4408,0.446,0.4421,0.4477,0.4515,0.4496,0.4568,0.4587,0.4626,0.4708,0.4745,0.4726,0.4871,0.4827,0.4834,0.4839,0.4885,0.4899,0.4912,0.4745,0.4745,0.4744,0,0,0.4353,0.4378,0.444,0.4467,0.4508,0.4518,0.4533,0.4571,0.4582,0.4654,0.4641,0.4687,0.4771,0.48,0.4825,0.4929,0.4918,0.4944,0.4996,0.5044,0.5056,0.5066,0.5104,0.5118,0.4953,0.4953,0.4953,0,0.4394,0.4471,0.4474,0.4531,0.456,0.4544,0.4607,0.4633,0.4687,0.4707,0.4685,0.479,0.4816,0.4904,0.4929,0.495,0.4968,0.494,0.5053,0.5064,0.5074,0.511,0.5125,0.4956,0.4956,0.4955,0.4955,0,0.452,0.4573,0.4618,0.467,0.4704,0.4764,0.4776,0.4809,0.4807,0.482,0.4894,0.4924,0.4976,0.4997,0.4995,0.5085,0.5073,0.5052,0.5013,0.5091,0.5126,0.514,0.496,0.4959,0.4958,0.4958,0,0,0.464,0.4692,0.4708,0.4732,0.4775,0.4816,0.4875,0.4926,0.4955,0.4992,0.5043,0.5114,0.5095,0.5124,0.5125,0.5166,0.5248,0.5141,0.5142,0.5161,0.535,0.5367,0.5383,0.524,0.5242,0.5245,0.5348,0,0.4739,0.4842,0.4846,0.4941,0.4991,0.4976,0.5027,0.506,0.5073,0.5118,0.5132,0.5183,0.5154,0.5172,0.5211,0.523,0.5286,0.5222,0.5288,0.529,0.528,0.5401,0.5418,0.5514,0.5361,0.5363,0.5365,0,0.4868,0.4908,0.5008,0.5044,0.5065,0.5111,0.5158,0.52,0.5236,0.5243,0.5276,0.5271,0.5332,0.5289,0.5374,0.533,0.5356,0.5369,0.5373,0.5381,0.5333,0.5413,0.5545,0.556,0.5386,0.5384,0.5383,0,0.4947,0.5026,0.5097,0.5117,0.516,0.5193,0.5213,0.5246,0.5276,0.5317,0.5337,0.5384,0.5411,0.5448,0.5456,0.5424,0.5541,0.5499,0.555,0.555,0.5576,0.5575,0.5716,0.5591,0.5591,0.5591,0.559,0,0.5057,0.5119,0.5133,0.5176,0.5245,0.5249,0.5317,0.5334,0.5364,0.5411,0.54,0.5445,0.5452,0.5498,0.5504,0.5574,0.5586,0.5594,0.5595,0.5596,0.5595,0.5615,0.5609,0.5594,0.5594,0.5593,0.5592,0,0.5158,0.5169,0.5245,0.5279,0.5289,0.5339,0.5368,0.541,0.5422,0.5481,0.5496,0.5515,0.5568,0.558,0.5643,0.5648,0.5731,0.5725,0.5719,0.5719,0.5769,0.5765,0.5929,0.5951,0.581,0.5812,0.5813,0,0.5229,0.5276,0.5315,0.5345,0.5366,0.5415,0.5446,0.5451,0.5483,0.5528,0.5564,0.5616,0.5659,0.5745,0.5765,0.5814,0.581,0.5864,0.5817,0.5816,0.5812,0.581,0.5815,0.5873,0.5875,0.5876,0.5877,0,0.5353,0.5356,0.54,0.5447,0.5484,0.5521,0.5556,0.5582,0.5591,0.5629,0.5683,0.5716,0.578,0.5833,0.5881,0.5902,0.5892,0.5891,0.5906,0.5908,0.5903,0.5908,0.5745,0.5888,0.5887,0.5886,0.5886,0.5885,0.5442,0.5483,0.5517,0.5567,0.5594,0.5627,0.5668,0.5685,0.573,0.5783,0.5783,0.5843,0.5877,0.5941,0.5965,0.6012,0.5995,0.6016,0.6022,0.6027,0.6032,0.5894,0.6021,0.602,0.602,0.602,0.602,0,0.5566,0.5587,0.5633,0.5683,0.5722,0.5708,0.5746,0.578,0.5833,0.5866,0.5907,0.597,0.6021,0.6044,0.6094,0.6127,0.6124,0.6141,0.6139,0.6144,0.6044,0.6027,0.6143,0.6143,0.6143,0.6142,0.6142,0.6142,0.5636,0.5706,0.5713,0.5796,0.5817,0.5875,0.5898,0.5929,0.5955,0.6025,0.6067,0.6082,0.6111,0.6163,0.6209,0.6215,0.6235,0.6254,0.6257,0.6164,0.6151,0.6139,0.6123,0.6258,0.6258,0.6354,0.6355,0.6356]}]]